User: anonymous   Login
Location: Allonne
(49.4086°N, 2.1143°E)
Time: 22:47:31
(UTC+00:00)
Language:

Okean O Rocket - Orbit

View from above orbital plane
View from above orbital plane
View from above satellite
View from above satellite

Ground track
Ground track

The orbit data is extracted from the following two-line orbital elements,

1 25861U 99039B   24284.54739640  .00003046  00000-0  40377-3 0  9997
2 25861  98.0756 331.3221 0016298 123.6594 236.6174 14.80529707360607
Epoch (UTC): 10 October 2024 13:08:15
Eccentricity: 0.0016298
inclination: 98.0756°
perigee height: 616 km
apogee height: 639 km
right ascension of ascending node: 331.3221°
argument of perigee: 123.6594°
revolutions per day: 14.80529707
mean anomaly at epoch: 236.6174°
orbit number at epoch: 36060

The dashed part of the orbit path shows where the satellite is in the earth's shadow,  

DLR